Wind_Speed
30 32 35 36 40 42 44 46 45 43 42 41 39 36 34 33 31 27 23 21 19 16 13 11 10 10 9 8 7 8 8 10 10 10 10 12 13 10 5 3 5 5 20 17 18 15 11
30 31 34 35 37 40 43 46 49 45 44 44 42 39 36 35 33 28 26 23 21 18 14 12 11 10 9 9 7 9 10 11 11 10 10 11 11 6 4 5 5 19 19 19 16 13 13
27 30 33 35 37 38 40 44 48 49 46 44 45 42 38 35 34 31 28 25 22 20 15 13 13 9 8 9 7 9 10 11 11 11 10 8 7 5 3 13 19 18 8 18 13 12 10
27 28 30 31 34 38 39 41 46 49 49 47 44 42 42 37 34 33 29 27 24 22 18 16 13 10 6 4 5 7 9 11 11 10 8 6 4 1 4 10 21 13 14 11 10 7 6
29 30 31 32 34 36 39 41 41 46 51 50 43 42 38 39 34 33 32 29 27 24 20 19 18 14 9 7 6 6 10 12 11 9 7 6 3 2 5 16 20 8 9 9 11 4 3
29 30 32 34 36 37 38 41 42 41 49 50 37 35 32 37 35 32 33 30 28 26 23 22 19 14 10 5 7 8 11 11 6 6 6 5 5 7 18 12 4 7 10 12 5 5 7
32 33 33 34 36 38 39 39 41 38 43 52 45 39 47 38 36 34 33 31 30 27 28 24 22 16 7 6 9 8 6 7 5 5 8 8 8 12 7 6 2 2 5 9 10 12 9
34 36 36 33 33 34 33 29 32 30 39 50 53 48 34 35 37 36 35 36 32 26 24 27 19 18 13 8 8 10 7 6 8 9 7 9 10 9 10 6 4 8 9 13 10 11 7
35 35 30 29 31 31 26 23 24 25 30 41 57 48 37 32 31 40 38 34 30 26 19 26 25 21 14 12 9 12 9 6 10 11 11 11 8 10 8 8 8 11 11 13 4 12 8
35 33 26 26 30 32 30 26 23 24 23 32 51 49 50 24 36 40 38 31 29 24 13 22 31 28 22 15 14 14 10 9 12 10 11 7 10 6 5 5 6 13 8 8 6 8 2
31 28 26 30 32 30 30 27 23 22 23 24 43 57 43 33 35 48 34 31 26 21 1 17 29 31 27 23 19 18 15 12 11 10 12 6 9 8 10 8 9 6 7 7 7 2 3
24 25 26 30 32 32 28 26 25 22 23 24 34 58 57 44 24 34 34 32 28 18 11 16 25 34 30 28 26 21 21 17 13 11 12 10 13 13 12 11 11 8 14 10 6 5 5
23 23 26 29 30 32 28 26 23 22 21 22 24 61 65 32 26 38 42 39 29 21 17 19 26 34 35 34 31 27 26 24 18 15 14 13 13 15 13 14 11 16 15 4 1 1 6
24 23 29 31 31 32 29 25 23 21 20 21 24 52 64 44 26 35 47 43 19 39 26 12 27 31 36 36 33 29 27 26 23 17 13 15 8 13 14 18 13 19 17 4 6 3 4
26 28 30 31 30 30 28 27 23 20 20 20 23 35 61 35 31 41 54 48 31 31 45 20 25 32 32 31 25 28 30 27 24 21 11 14 10 17 17 18 14 20 18 10 1 2 3
27 31 32 32 31 30 28 27 25 21 19 18 19 26 50 37 39 43 48 54 29 18 29 31 26 29 32 34 28 29 26 23 27 23 20 10 7 18 19 19 18 15 16 8 7 2 2
28 31 34 33 32 31 31 29 26 22 19 19 18 21 32 70 26 52 46 49 42 15 21 39 29 25 27 34 29 27 15 17 28 25 21 15 10 13 18 20 21 20 15 10 6 3 5
30 32 36 34 34 34 31 29 27 25 21 20 19 18 18 39 35 49 29 56 31 22 24 31 26 20 22 27 31 26 22 19 18 23 23 18 10 9 22 15 22 21 22 16 4 5 7
33 31 35 36 36 34 31 29 26 25 25 22 21 15 16 37 31 36 37 43 31 23 22 23 18 21 14 21 23 23 23 21 6 24 14 18 8 8 4 14 22 26 27 26 19 14 10
29 29 30 32 32 31 33 31 28 27 26 24 22 12 18 31 50 45 31 47 46 32 21 24 21 17 16 19 20 24 21 20 17 19 19 13 14 8 9 2 7 23 28 26 25 14 17
33 33 32 32 34 33 34 33 29 29 28 26 24 19 17 33 48 33 25 39 59 34 19 25 23 21 18 17 23 16 23 23 22 18 19 18 12 17 16 9 7 8 13 22 30 31 22
36 38 38 37 37 36 36 36 34 31 31 30 29 22 23 30 49 32 40 20 42 45 31 28 18 17 14 17 21 22 16 19 22 25 21 21 12 13 18 17 13 14 14 15 17 26 31
41 42 42 42 41 41 40 39 38 36 37 37 33 27 23 32 35 36 46 44 42 45 32 24 21 14 16 13 11 14 11 14 16 16 17 20 21 9 7 13 15 19 24 26 24 25 20
40 40 41 42 43 44 44 43 42 41 41 41 32 26 27 30 37 40 43 43 40 40 44 19 23 15 15 14 10 10 12 12 14 12 11 14 20 13 4 5 2 11 12 12 17 20 21
41 42 42 41 42 43 46 45 46 46 44 42 37 33 31 33 37 27 42 37 32 42 45 40 17 22 14 15 15 12 14 12 12 12 14 14 15 9 5 12 16 12 12 14 11 10 11
35 38 42 43 44 45 46 48 47 48 47 44 40 33 30 29 37 36 31 44 35 31 43 48 23 22 23 22 20 11 8 9 9 10 17 17 18 17 12 5 6 5 11 15 13 16 10
29 31 33 36 41 44 46 47 48 49 48 45 42 37 34 32 30 28 35 30 35 34 43 49 37 25 28 26 22 15 13 11 8 10 16 22 20 23 21 11 11 14 9 10 10 3 7
27 26 28 30 33 37 43 47 48 49 49 48 43 39 38 36 34 25 33 39 37 45 36 50 40 33 35 26 21 16 10 15 12 10 8 16 16 19 20 10 15 14 17 17 8 6 9
29 28 28 28 31 35 40 45 47 48 48 47 45 41 39 36 30 36 37 39 31 34 33 41 47 35 32 27 18 16 12 12 18 15 19 14 20 10 15 6 8 6 8 11 15 10 11
Wind_Direction
267 266 265 261 259 259 256 257 255 247 241 236 234 231 232 233 232 235 237 235 236 237 233 226 243 250 246 240 244 259 266 282 304 318 326 316 315 321 351 103 111 124 123 113 101 102 99
269 268 267 265 264 260 256 253 255 253 248 239 235 230 229 229 231 229 230 231 230 228 223 224 225 232 233 230 241 260 268 281 296 315 318 312 310 319 343 129 152 129 118 107 104 92 83
273 270 269 266 266 264 257 253 249 249 247 246 235 233 227 227 228 228 226 227 228 222 218 215 216 212 230 238 246 258 272 284 290 302 310 308 299 291 166 114 121 120 124 115 101 76 63
282 278 276 273 270 267 264 257 251 245 242 237 238 235 232 229 225 225 226 225 224 221 212 207 205 193 203 225 260 266 274 280 286 296 302 305 293 292 182 154 137 132 126 114 120 89 48
284 282 279 275 272 269 267 265 255 247 241 237 237 235 231 225 225 222 224 224 219 219 206 207 194 184 193 219 265 299 287 276 287 290 280 275 253 236 169 165 134 146 153 146 143 130 135
283 278 277 275 272 269 265 262 260 247 240 233 215 217 229 226 225 222 221 222 219 217 207 200 198 196 205 230 272 280 269 266 270 263 259 254 245 196 162 157 157 169 162 159 146 168 148
286 282 277 271 269 268 266 262 260 250 242 230 210 214 223 226 223 222 221 218 219 219 209 203 209 199 180 239 269 260 255 248 244 235 219 230 222 192 173 168 30 169 178 160 145 135 138
282 279 277 271 263 260 266 265 263 248 241 227 213 214 212 227 221 221 219 217 217 219 221 207 206 205 200 222 254 232 233 235 220 218 213 191 201 207 198 243 273 244 190 153 145 166 197
278 273 272 269 261 253 258 264 264 260 248 232 220 212 209 223 224 219 218 217 217 215 222 217 213 219 211 209 235 224 229 218 203 217 222 228 206 203 211 234 229 196 199 186 204 191 196
277 265 264 260 262 252 254 258 260 262 259 240 219 205 203 218 213 221 218 210 213 210 222 230 217 220 218 199 221 223 229 214 202 210 204 211 222 208 200 181 164 159 178 197 228 180 216
275 257 259 256 254 248 251 252 260 263 259 250 220 202 202 204 206 217 208 204 204 197 103 232 219 218 217 211 224 216 223 216 216 217 204 207 187 181 181 195 188 201 171 162 158 230 254
267 255 252 256 256 247 248 250 254 260 254 250 228 201 203 215 212 208 189 191 184 179 231 209 205 210 209 207 215 219 207 209 207 205 209 221 192 191 201 196 194 190 152 157 200 247 298
258 255 251 253 255 245 245 248 251 258 252 256 244 205 210 205 208 207 171 177 173 200 211 214 204 200 206 209 212 217 215 201 201 184 194 200 194 201 204 200 189 182 174 127 349 303 225
251 245 248 253 251 240 241 244 248 254 252 256 247 216 215 208 188 188 173 175 190 212 195 194 196 200 202 208 211 208 215 210 208 208 186 197 182 200 203 203 191 187 195 185 194 197 268
246 245 244 250 245 240 239 243 242 247 251 258 249 227 215 203 191 188 175 184 200 207 202 189 185 191 196 202 206 200 208 215 219 220 202 196 188 191 185 193 194 194 203 224 206 173 305
244 243 243 246 243 238 238 240 239 241 248 255 254 241 219 194 194 180 190 190 200 183 195 200 191 199 199 197 201 202 203 221 220 219 217 207 164 193 192 191 199 195 206 206 214 95 295
237 238 239 240 237 236 237 236 234 234 237 249 257 250 230 220 193 188 198 195 198 200 189 195 199 200 209 199 202 199 217 217 211 215 213 210 205 190 191 203 205 197 198 208 187 182 167
230 235 238 236 233 235 236 230 229 228 234 243 254 253 229 206 195 194 214 197 190 197 192 195 203 212 214 205 202 204 209 204 210 209 207 201 195 164 201 212 216 219 233 227 207 211 218
233 234 234 235 233 234 232 222 228 223 229 239 251 245 208 203 213 203 217 194 188 187 188 190 194 204 206 205 197 203 202 208 186 203 201 203 196 141 183 232 228 224 226 226 226 241 245
238 235 230 229 227 228 229 224 221 221 227 235 242 234 216 201 213 205 204 196 186 195 191 192 203 207 208 194 194 199 200 198 203 196 205 210 222 209 199 209 221 221 229 227 225 228 236
239 236 234 230 227 224 225 223 224 217 224 229 234 224 214 213 206 206 189 195 196 190 183 189 201 207 202 193 200 198 201 200 203 200 209 220 234 228 236 256 259 246 241 234 232 237 238
241 239 236 233 229 225 221 222 222 216 221 229 232 218 208 208 205 201 202 197 199 190 196 201 199 200 212 228 237 230 214 212 212 211 215 219 223 232 233 243 253 251 243 236 236 241 247
247 243 238 234 230 227 222 219 216 216 214 221 225 217 210 209 210 216 220 213 210 198 196 194 181 187 209 219 231 238 228 233 228 227 230 221 219 221 227 234 251 268 250 244 243 249 251
249 243 237 233 229 225 221 217 214 215 216 222 226 219 211 211 205 209 207 210 204 192 199 192 195 180 210 216 210 201 184 194 211 219 216 232 222 211 226 200 290 249 246 242 244 249 249
247 241 236 231 226 222 218 216 212 213 217 219 218 215 213 214 212 205 209 209 201 201 205 208 198 201 221 210 202 184 175 194 206 214 222 221 222 209 215 220 267 255 257 246 261 244 242
242 238 236 232 226 222 217 213 211 211 215 217 215 209 214 214 215 211 201 203 190 204 202 203 201 209 212 208 203 189 180 187 192 192 208 210 210 215 210 244 233 281 245 236 241 273 231
233 230 227 225 221 218 214 210 208 207 210 215 214 210 212 216 205 207 214 187 205 207 210 194 198 208 208 208 201 203 201 191 195 193 201 201 211 219 226 240 267 247 249 214 202 237 184
230 223 219 218 217 215 212 207 205 204 206 212 210 210 211 213 204 195 197 206 195 205 190 191 198 202 204 201 208 204 219 212 215 221 225 221 205 215 220 227 258 237 226 215 216 216 197
228 223 220 216 213 210 208 204 202 202 203 208 211 208 212 212 205 210 207 202 204 205 205 194 201 200 203 202 203 207 211 210 231 231 239 228 229 232 220 242 242 261 239 244 233 209 212
Height
3111 3111 3112 3113 3114 3116 3119 3120 3123 3128 3130 3132 3136 3139 3143 3147 3151 3154 3157 3159 3161 3163 3163 3162 3163 3164 3165 3167 3167 3166 3165 3164 3165 3165 3164 3163 3161 3160 3161 3161 3163 3163 3166 3169 3172 3174 3177
3104 3105 3104 3105 3107 3109 3110 3113 3115 3118 3123 3126 3129 3133 3137 3141 3146 3149 3153 3155 3157 3159 3160 3161 3161 3162 3164 3166 3165 3165 3164 3164 3165 3165 3163 3162 3160 3160 3160 3161 3163 3166 3168 3171 3174 3175 3175
3097 3097 3098 3098 3099 3099 3102 3104 3106 3110 3113 3118 3123 3126 3131 3134 3140 3145 3148 3151 3154 3156 3157 3158 3160 3160 3162 3164 3163 3163 3163 3163 3163 3164 3162 3161 3160 3161 3161 3162 3166 3167 3169 3173 3175 3175 3176
3089 3090 3091 3091 3092 3092 3093 3096 3097 3101 3105 3109 3114 3120 3125 3129 3133 3139 3143 3146 3149 3152 3154 3156 3158 3158 3161 3162 3162 3162 3163 3162 3162 3163 3161 3161 3161 3161 3162 3163 3166 3168 3172 3173 3175 3176 3176
3081 3081 3082 3083 3083 3084 3085 3086 3089 3091 3095 3100 3106 3113 3117 3124 3129 3133 3139 3142 3145 3148 3150 3154 3156 3156 3159 3160 3162 3161 3162 3161 3161 3162 3161 3160 3161 3162 3162 3163 3167 3170 3172 3173 3176 3177 3178
3075 3075 3075 3074 3074 3075 3077 3077 3078 3082 3085 3091 3100 3107 3112 3118 3124 3129 3132 3138 3141 3144 3146 3150 3153 3157 3157 3159 3159 3159 3160 3159 3160 3160 3161 3161 3161 3161 3164 3166 3167 3168 3170 3173 3175 3178 3177
3065 3066 3068 3068 3067 3066 3067 3069 3070 3072 3076 3083 3090 3098 3104 3111 3118 3122 3128 3133 3139 3142 3142 3147 3151 3152 3154 3157 3157 3157 3158 3158 3159 3160 3160 3161 3162 3162 3164 3166 3168 3169 3170 3173 3175 3176 3178
3059 3058 3058 3058 3060 3060 3060 3061 3062 3064 3067 3073 3081 3090 3099 3104 3111 3116 3121 3125 3131 3137 3142 3143 3147 3149 3151 3153 3155 3155 3157 3158 3159 3160 3160 3162 3162 3164 3166 3167 3169 3169 3170 3172 3175 3176 3178
3051 3051 3051 3052 3053 3054 3055 3056 3057 3057 3059 3063 3072 3081 3091 3100 3105 3109 3115 3124 3130 3134 3138 3140 3144 3147 3150 3151 3151 3154 3155 3155 3157 3159 3160 3161 3163 3164 3165 3167 3169 3169 3171 3172 3173 3174 3176
3043 3043 3044 3046 3047 3049 3050 3052 3053 3053 3054 3056 3063 3075 3084 3089 3099 3103 3111 3122 3127 3132 3137 3137 3138 3144 3147 3146 3149 3150 3151 3155 3155 3157 3159 3161 3161 3163 3164 3166 3169 3170 3173 3173 3173 3175 3176
3035 3036 3038 3040 3041 3043 3046 3048 3049 3049 3050 3051 3055 3068 3076 3085 3090 3095 3113 3117 3126 3131 3134 3133 3132 3136 3140 3142 3144 3146 3148 3150 3152 3154 3158 3159 3160 3162 3164 3167 3169 3170 3172 3174 3175 3176 3176
3028 3030 3033 3034 3036 3038 3041 3043 3044 3045 3045 3047 3049 3060 3069 3075 3080 3091 3104 3112 3122 3130 3121 3121 3122 3126 3133 3135 3138 3141 3143 3148 3150 3153 3156 3158 3160 3162 3164 3166 3167 3169 3171 3174 3176 3176 3174
3023 3025 3026 3028 3030 3033 3036 3038 3040 3041 3042 3043 3045 3052 3059 3068 3077 3083 3089 3104 3116 3113 3111 3113 3114 3119 3127 3129 3133 3138 3139 3142 3145 3149 3153 3156 3159 3160 3163 3164 3166 3168 3171 3175 3180 3179 3175
3017 3020 3021 3023 3025 3027 3031 3034 3036 3038 3039 3038 3040 3044 3049 3061 3069 3068 3082 3095 3101 3091 3101 3103 3109 3117 3119 3124 3128 3132 3137 3140 3142 3144 3147 3153 3158 3158 3159 3162 3163 3167 3170 3170 3180 3178 3172
3011 3013 3015 3017 3019 3023 3026 3029 3032 3034 3035 3035 3035 3038 3044 3058 3063 3070 3074 3083 3080 3082 3094 3100 3106 3111 3115 3120 3125 3129 3134 3137 3140 3141 3146 3147 3152 3154 3156 3159 3164 3165 3167 3171 3169 3168 3170
3004 3006 3009 3011 3014 3017 3020 3025 3028 3031 3033 3032 3033 3034 3040 3055 3059 3068 3070 3070 3083 3083 3088 3098 3102 3107 3109 3115 3121 3124 3130 3134 3136 3139 3141 3145 3149 3153 3156 3158 3162 3161 3166 3169 3168 3169 3176
2996 2999 3002 3005 3008 3012 3016 3020 3024 3027 3030 3031 3031 3032 3038 3043 3051 3059 3059 3069 3080 3082 3088 3095 3097 3102 3107 3111 3117 3121 3129 3128 3131 3135 3139 3142 3146 3152 3155 3156 3156 3158 3160 3164 3164 3163 3167
2988 2991 2994 2998 3002 3007 3011 3015 3020 3024 3026 3028 3028 3031 3036 3044 3047 3051 3056 3062 3075 3082 3087 3091 3096 3102 3104 3109 3113 3119 3123 3127 3128 3133 3136 3140 3143 3146 3150 3151 3153 3155 3158 3159 3158 3162 3162
2980 2984 2987 2991 2996 3001 3005 3010 3015 3019 3022 3026 3026 3030 3035 3038 3042 3049 3055 3061 3073 3081 3084 3090 3094 3099 3104 3107 3113 3117 3121 3126 3127 3131 3134 3138 3140 3144 3148 3152 3149 3149 3151 3153 3155 3158 3157
2972 2975 2980 2984 2989 2994 3000 3005 3010 3015 3019 3022 3025 3028 3032 3039 3044 3047 3053 3056 3070 3079 3083 3087 3094 3098 3102 3106 3110 3112 3117 3122 3126 3128 3133 3136 3137 3139 3141 3141 3141 3142 3143 3147 3152 3153 3148
2964 2968 2972 2977 2982 2988 2994 3000 3005 3011 3015 3020 3021 3025 3028 3030 3038 3041 3049 3054 3063 3074 3081 3085 3092 3095 3100 3105 3108 3110 3114 3118 3123 3127 3131 3133 3134 3138 3139 3139 3139 3140 3140 3141 3142 3144 3144
2955 2959 2963 2968 2973 2980 2986 2992 3000 3006 3011 3014 3016 3022 3026 3027 3031 3038 3046 3050 3060 3073 3080 3084 3089 3093 3099 3105 3107 3107 3112 3115 3120 3124 3127 3129 3132 3135 3137 3138 3138 3137 3137 3137 3138 3138 3139
2943 2948 2952 2957 2964 2970 2978 2985 2993 2999 3004 3004 3010 3019 3023 3027 3031 3038 3040 3049 3058 3070 3078 3083 3088 3092 3099 3103 3105 3109 3112 3115 3119 3122 3124 3128 3130 3134 3136 3136 3136 3133 3130 3130 3132 3131 3134
2930 2934 2939 2945 2952 2960 2968 2976 2985 2991 2996 3000 3011 3020 3021 3024 3030 3033 3039 3049 3055 3063 3074 3081 3087 3091 3097 3101 3104 3106 3108 3112 3115 3119 3122 3125 3129 3133 3133 3134 3136 3124 3124 3124 3125 3127 3127
2917 2922 2927 2934 2941 2949 2957 2966 2975 2984 2990 2996 3007 3013 3018 3021 3026 3032 3038 3047 3052 3061 3071 3081 3086 3091 3094 3099 3102 3105 3108 3112 3114 3116 3119 3123 3127 3129 3130 3131 3124 3120 3120 3121 3122 3123 3124
2905 2909 2915 2922 2930 2938 2947 2956 2966 2976 2983 2991 3000 3010 3014 3018 3022 3030 3035 3042 3045 3056 3066 3073 3084 3085 3090 3095 3099 3101 3105 3109 3111 3113 3116 3120 3123 3127 3128 3130 3123 3116 3116 3119 3120 3119 3120
2897 2901 2906 2912 2919 2928 2937 2947 2957 2968 2977 2985 2995 3004 3009 3011 3016 3023 3028 3033 3043 3054 3059 3069 3076 3082 3087 3091 3096 3099 3102 3105 3108 3109 3111 3116 3119 3122 3125 3125 3116 3115 3115 3116 3121 3122 3118
2891 2895 2901 2906 2913 2920 2928 2938 2949 2960 2971 2978 2989 2998 3004 3006 3013 3019 3026 3036 3041 3051 3055 3065 3076 3078 3084 3089 3093 3096 3099 3102 3105 3107 3108 3111 3114 3116 3121 3122 3115 3109 3111 3114 3116 3116 3117
2886 2891 2896 2902 2908 2915 2923 2932 2943 2954 2965 2975 2982 2992 3000 3005 3011 3015 3023 3031 3039 3048 3056 3061 3065 3070 3079 3085 3089 3094 3096 3098 3100 3103 3104 3108 3108 3109 3110 3107 3107 3107 3109 3110 3113 3114 3115